This demonstration page uses our WeatherBlox Daily Observations layout. Learn more.

Left ArrowRight Arrow

39.92423, -83.80882

Hourly Observations for July 3, 2021

Temp ( °F °C ) Dew Point ( °F °C ) Humidity (%) Winds ( mph kmh ) Pressure ( in mb ) Visibility ( mi km ) Precip ( " mm )
12:56 am 00:56 Clear 59 15 N/A N/A N N/A 29.99 1016 10 16 N/A
1:56 am 01:56 Clear 59 15 59 15 100 100 N N/A 29.99 1016 10 16 N/A
2:56 am 02:56 Clear 57 14 N/A N/A WNW 3 6 29.99 1016 10 16 N/A
3:56 am 03:56 Clear 57 14 N/A N/A NNW 5 7 30.00 1016 10 16 N/A
4:56 am 04:56 Clear 55 13 N/A N/A WNW 5 7 30.00 1016 10 16 N/A
5:56 am 05:56 Clear 55 13 N/A N/A N N/A 30.01 1016 10 16 N/A
6:56 am 06:56 Sunny 55 13 N/A N/A W 5 7 30.03 1017 10 16 N/A
7:56 am 07:56 Sunny 59 15 59 15 100 100 W 3 6 30.02 1017 10 16 N/A
8:56 am 08:56 Sunny 63 17.2 61 16.1 93 93 WNW 5 7 30.04 1017 10 16 N/A
9:56 am 09:56 Sunny 67 19.4 62 16.7 84 84 W 5 7 30.04 1017 10 16 N/A
10:56 am 10:56 Sunny 71 21.7 60 15.6 68 68 NW 7 11 30.03 1017 10 16 N/A
11:56 am 11:56 Sunny 73 22.8 57 13.9 57 57 NW 12 19 30.01 1016 10 16 N/A
12:56 pm 12:56 Partly Cloudy 74 23.3 57 13.9 56 56 W 6 9 30.00 1016 10 16 N/A
1:56 pm 13:56 Mostly Sunny 75 23.9 57 13.9 54 54 WNW 14 22 29.98 1015 10 16 N/A
2:56 pm 14:56 Partly Cloudy 77 25 59 15 54 54 WNW 12 19 29.97 1015 10 16 N/A
3:56 pm 15:56 Mostly Cloudy 76 24.4 57 13.9 52 52 NW 12 19 29.96 1015 10 16 N/A
4:56 pm 16:56 Cloudy 76 24.4 56 13.3 50 50 WNW 13 20 29.95 1014 10 16 N/A
5:56 pm 17:56 Mostly Cloudy 76 24.4 56 13.3 50 50 W 10 17 29.94 1014 10 16 N/A
6:56 pm 18:56 Sunny 76 24.4 57 13.9 52 52 W 12 19 29.93 1014 10 16 N/A
7:56 pm 19:56 Mostly Sunny 73 22.8 58 14.4 59 59 W 9 15 29.94 1014 10 16 N/A
8:56 pm 20:56 Mostly Cloudy 71 21.7 57 13.9 61 61 W 9 15 29.95 1014 10 16 N/A
9:56 pm 21:56 Mostly Cloudy 69 20.6 57 13.9 66 66 WSW 9 15 29.96 1014 10 16 N/A
10:56 pm 22:56 Partly Cloudy 66 18.9 59 15 78 78 WSW 7 11 29.96 1015 10 16 N/A
11:56 pm 23:56 Cloudy 67 19.4 59 15 76 76 WSW 9 15 29.95 1014 10 16 N/A

Powered by AerisWeather